Regional Weather Roundup
Issued by NWS Jackson, KY

Home | Current Version | Previous Version | Graphics & Text | Print | Product List | Glossary On
Versions: 1 2 3 4 5 6 7 8 9 10 11 12 13 14 15 16 17 18 19 20 21 22 23 24 25 26 27 28 29 30 31 32 33 34 35 36 37 38 39 40 41 42 43 44 45 46 47 48 49 50
000
ASUS43 KJKL 012210
RWRJKL

EAST KENTUCKY HOURLY WEATHER ROUNDUP
NATIONAL WEATHER SERVICE JACKSON KY
600 PM EDT TUE SEP 01 2015

NOTE: "FAIR" INDICATES FEW OR NO CLOUDS BELOW 12,000 FEET WITH
NO SIGNIFICANT WEATHER AND/OR OBSTRUCTIONS TO VISIBILITY.

* THESE REPORTS ARE NOT UNDER NWS QUALITY CONTROL AND MAY NOT
  REPORT WEATHER SUCH AS PRECIPITATION AND FOG.

KYZ079-080-083-085-087-088-110-112-115-119-120-012300
...EASTERN KENTUCKY...

CITY           SKY/WX    TMP DP  RH WIND       PRES   REMARKS
JACKSON        MOSUNNY   84  65  52 CALM      30.13S
LONDON         MOSUNNY   85  62  46 CALM      30.12S
SOMERSET*      MOSUNNY   86  59  39 CALM      30.12S
MONTICELLO*    PTSUNNY   86  70  58 CALM      30.14S HX  90
WILLIAMSBURG*  MOSUNNY   82  68  61 CALM      30.12R
MIDDLESBORO*   PTSUNNY   85  68  56 N5        30.12R
HAZARD APT*    CLEAR     86  66  51 CALM      30.12S
BLACK MTN*       N/A     72  66  83 CALM        N/A
PIKEVILLE APT* SUNNY     82  66  57 CALM      30.13S
BIG SANDY*     PTCLDY    85  65  50 CALM      30.11S
MOREHEAD APT*  PTCLDY    86  63  45 S3        30.12F
$$

KYZ035-036-041-042-044-050-067-078-099-012300
...CENTRAL KENTUCKY...

CITY           SKY/WX    TMP DP  RH WIND       PRES   REMARKS
MT STERLING*   PTSUNNY   86  68  54 CALM      30.12S
FLEMING/MASON* SUNNY     86  66  51 W3        30.11S
DANVILLE*      MOSUNNY   82  64  54 CALM      30.12S
RICHMOND*      MOSUNNY   86  59  39 CALM      30.10S
LEXINGTON      MOSUNNY   88  62  41 NW5       30.11S
FRANKFORT      SUNNY     88  62  41 NW6       30.09S
$$

KYZ091>093-OHZ055-061-077-WVZ005-015-034-035-042-012300
...SOUTHERN OHIO/WEST VIRGINIA...

CITY           SKY/WX    TMP DP  RH WIND       PRES   REMARKS
COVINGTON      PTSUNNY   86  64  47 SW3       30.09F
COLUMBUS       PTSUNNY   86  64  47 SW6       30.06F
DAYTON         PTSUNNY   81  67  62 NW12      30.11S
WILMINGTON     MOSUNNY   85  66  53 SW7       30.09F
HUNTINGTON     PTSUNNY   87  63  44 NW3       30.08F
CHARLESTON     MOSUNNY   88  64  44 NW3       30.08F
PINEVILLE*     PTSUNNY   80  72  76 MISG      30.19S
BECKLEY        PTSUNNY   79  63  57 N6        30.18F
BLUEFIELD      CLOUDY    80  61  52 N3        30.21S
$$

VAZ002-007-008-TNZ017-027-036-066-071-012300
...SOUTHWEST VIRGINIA/EAST TENNESSEE...

CITY           SKY/WX    TMP DP  RH WIND       PRES   REMARKS
WISE*          MOSUNNY   81  61  50 CALM      30.21S
JONESVILLE*    PTCLDY    84  64  51 CALM      30.14S
ABINGDON*      MOSUNNY   85  60  42 CALM      30.15S
BRISTOL        PTSUNNY   87  64  46 N6        30.11S
KNOXVILLE      PTSUNNY   88  61  40 NE3       30.09R
OAK RIDGE      MOSUNNY   90  65  43 VRB3      30.11S HX  92
CROSSVILLE     PTSUNNY   81  65  58 CALM      30.16S
NASHVILLE      CLOUDY    88  63  43 E5        30.08F
$$

...KEY TO REMARKS...
VSB - VISIBILITY IN MILES
WCI - WIND CHILL INDEX
HX  - HEAT INDEX

$$



USA.gov is the U.S. government's official web portal to all federal, state and local government web resources and services.